| time (UTC) | temp F | wind direction | speed MPH | gust MPH | rain 1hr in | rain 24hr in | rain mn in | humidity % | barometer mb |
| 20260504023836 | 55 | 242 | 7.0 | 11.0 | 0.00 | 0.00 | 0.00 | 74 | 994.1 |
| 20260504023333 | 56 | 250 | 6.0 | 11.0 | 0.00 | 0.00 | 0.00 | 73 | 994.4 |
| 20260504022828 | 57 | 212 | 5.0 | 10.0 | 0.00 | 0.00 | 0.00 | 70 | 994.1 |
| 20260504022326 | 57 | 235 | 3.0 | 9.0 | 0.00 | 0.00 | 0.00 | 69 | 994.1 |
| 20260504021822 | 58 | 214 | 2.0 | 6.0 | 0.00 | 0.00 | 0.00 | 66 | 993.6 |
| 20260504021320 | 59 | 199 | 4.0 | 11.0 | 0.00 | 0.00 | 0.00 | 62 | 993.6 |
| 20260504020816 | 60 | 203 | 6.0 | 14.0 | 0.00 | 0.00 | 0.00 | 58 | 993.6 |
| 20260504020313 | 60 | 223 | 6.0 | 16.0 | 0.00 | 0.00 | 0.00 | 59 | 993.6 |
| 20260504015809 | 59 | 240 | 6.0 | 16.0 | 0.00 | 0.00 | 0.00 | 59 | 994.1 |
| 20260504015305 | 59 | 229 | 7.0 | 13.0 | 0.00 | 0.00 | 0.00 | 60 | 994.1 |
| 20260504014801 | 59 | 214 | 8.0 | 15.0 | 0.00 | 0.00 | 0.00 | 60 | 994.1 |
| 20260504014258 | 61 | 212 | 9.0 | 16.0 | 0.00 | 0.00 | 0.00 | 55 | 994.1 |
| 20260504013756 | 61 | 233 | 4.0 | 16.0 | 0.00 | 0.00 | 0.00 | 52 | 994.4 |
| 20260504013253 | 61 | 238 | 0.0 | 0.0 | 0.00 | 0.00 | 0.00 | 52 | 994.1 |
| 20260504012749 | 60 | 195 | 0.0 | 0.0 | 0.00 | 0.00 | 0.00 | 55 | 994.4 |
| 20260504012247 | 60 | 188 | 0.0 | 0.0 | 0.00 | 0.00 | 0.00 | 54 | 994.4 |
| 20260504011744 | 61 | 167 | 0.0 | 0.0 | 0.00 | 0.00 | 0.00 | 52 | 994.1 |
| 20260504011241 | 61 | 167 | 0.0 | 0.0 | 0.00 | 0.00 | 0.00 | 51 | 994.1 |
| 20260504010737 | 62 | 202 | 0.0 | 0.0 | 0.00 | 0.00 | 0.00 | 52 | 994.1 |
| 20260504010232 | 61 | 190 | 0.0 | 0.0 | 0.00 | 0.00 | 0.00 | 52 | 994.4 |
| 20260504005730 | 61 | 206 | 1.0 | 4.0 | 0.00 | 0.00 | 0.00 | 52 | 994.4 |
| 20260504005227 | 62 | 206 | 1.0 | 5.0 | 0.00 | 0.00 | 0.00 | 52 | 994.7 |
| 20260504004724 | 62 | 204 | 0.0 | 5.0 | 0.00 | 0.00 | 0.00 | 51 | 994.7 |
| 20260504004221 | 62 | 206 | 0.0 | 0.0 | 0.00 | 0.00 | 0.00 | 51 | 994.7 |
| 20260504003718 | 62 | 204 | 0.0 | 0.0 | 0.00 | 0.00 | 0.00 | 52 | 994.7 |
| 20260504003215 | 62 | 188 | 0.0 | 0.0 | 0.00 | 0.00 | 0.00 | 51 | 994.7 |
| 20260504002712 | 62 | 203 | 0.0 | 0.0 | 0.00 | 0.00 | 0.00 | 51 | 994.7 |
| 20260504002209 | 62 | 203 | 0.0 | 0.0 | 0.00 | 0.00 | 0.00 | 52 | 995.1 |
| 20260504001707 | 62 | 200 | 1.0 | 6.0 | 0.00 | 0.00 | 0.00 | 51 | 995.4 |
| 20260504001203 | 62 | 221 | 3.0 | 6.0 | 0.00 | 0.00 | 0.00 | 50 | 995.4 |
| 20260504000659 | 63 | 230 | 4.0 | 8.0 | 0.00 | 0.00 | 0.00 | 50 | 995.4 |
| 20260504000157 | 63 | 240 | 5.0 | 10.0 | 0.00 | 0.00 | 0.00 | 50 | 995.8 |
| 20260503235655 | 63 | 227 | 5.0 | 10.0 | 0.00 | 0.00 | 0.00 | 50 | 995.8 |
| 20260503235151 | 63 | 252 | 4.0 | 10.0 | 0.00 | 0.00 | 0.00 | 50 | 995.8 |
| 20260503234649 | 63 | 225 | 5.0 | 11.0 | 0.00 | 0.00 | 0.00 | 50 | 995.8 |
| 20260503234147 | 63 | 246 | 7.0 | 18.0 | 0.00 | 0.00 | 0.00 | 50 | 995.8 |
| 20260503233644 | 63 | 262 | 9.0 | 18.0 | 0.00 | 0.00 | 0.00 | 50 | 996.2 |
| 20260503233139 | 63 | 283 | 10.0 | 18.0 | 0.00 | 0.00 | 0.00 | 50 | 996.5 |
| 20260503232637 | 64 | 262 | 10.0 | 21.0 | 0.00 | 0.00 | 0.00 | 48 | 996.5 |
| 20260503232134 | 65 | 236 | 12.0 | 24.0 | 0.00 | 0.00 | 0.00 | 45 | 996.2 |
| 20260503231632 | 67 | 284 | 13.0 | 24.0 | 0.00 | 0.00 | 0.00 | 39 | 996.2 |
| 20260503231128 | 70 | 211 | 11.0 | 19.0 | 0.00 | 0.00 | 0.00 | 31 | 996.2 |
| 20260503230625 | 70 | 180 | 12.0 | 20.0 | 0.00 | 0.00 | 0.00 | 29 | 996.2 |
| 20260503230122 | 70 | 201 | 14.0 | 28.0 | 0.00 | 0.00 | 0.00 | 28 | 996.2 |
| 20260503225620 | 71 | 122 | 15.0 | 28.0 | 0.00 | 0.00 | 0.00 | 28 | 996.2 |
| 20260503225119 | 71 | 210 | 16.0 | 28.0 | 0.00 | 0.00 | 0.00 | 28 | 996.2 |
| 20260503224617 | 71 | 210 | 16.0 | 29.0 | 0.00 | 0.00 | 0.00 | 27 | 996.2 |
| 20260503224115 | 72 | 201 | 16.0 | 29.0 | 0.00 | 0.00 | 0.00 | 26 | 996.5 |
| 20260503223612 | 72 | 217 | 17.0 | 28.0 | 0.00 | 0.00 | 0.00 | 28 | 996.5 |
| 20260503223108 | 72 | 311 | 16.0 | 30.0 | 0.00 | 0.00 | 0.00 | 26 | 996.5 |
| 20260503222606 | 71 | 227 | 17.0 | 31.0 | 0.00 | 0.00 | 0.00 | 26 | 996.5 |
| 20260503222104 | 71 | 214 | 16.0 | 31.0 | 0.00 | 0.00 | 0.00 | 27 | 996.5 |
| 20260503221602 | 71 | 204 | 18.0 | 31.0 | 0.00 | 0.00 | 0.00 | 27 | 996.9 |
| 20260503221059 | 72 | 208 | 17.0 | 32.0 | 0.00 | 0.00 | 0.00 | 26 | 996.9 |
| 20260503220555 | 72 | 220 | 16.0 | 32.0 | 0.00 | 0.00 | 0.00 | 26 | 996.9 |
| 20260503220052 | 72 | 247 | 16.0 | 31.0 | 0.00 | 0.00 | 0.00 | 25 | 997.2 |
| 20260503215549 | 72 | 226 | 16.0 | 31.0 | 0.00 | 0.00 | 0.00 | 25 | 997.2 |
| 20260503215046 | 72 | 217 | 16.0 | 30.0 | 0.00 | 0.00 | 0.00 | 25 | 997.2 |
| 20260503214544 | 72 | 204 | 16.0 | 30.0 | 0.00 | 0.00 | 0.00 | 25 | 997.2 |
| 20260503214040 | 72 | 202 | 15.0 | 27.0 | 0.00 | 0.00 | 0.00 | 25 | 997.2 |
| 20260503213539 | 72 | 208 | 15.0 | 27.0 | 0.00 | 0.00 | 0.00 | 25 | 997.6 |
| 20260503213035 | 71 | 203 | 16.0 | 31.0 | 0.00 | 0.00 | 0.00 | 25 | 997.6 |
| 20260503212533 | 71 | 179 | 17.0 | 31.0 | 0.00 | 0.00 | 0.00 | 26 | 997.9 |
| 20260503212030 | 71 | 210 | 19.0 | 31.0 | 0.00 | 0.00 | 0.00 | 26 | 997.9 |
| 20260503211527 | 71 | 124 | 19.0 | 31.0 | 0.00 | 0.00 | 0.00 | 25 | 997.9 |
| 20260503211022 | 71 | 161 | 19.0 | 31.0 | 0.00 | 0.00 | 0.00 | 25 | 998.3 |
| 20260503210520 | 71 | 207 | 18.0 | 31.0 | 0.00 | 0.00 | 0.00 | 26 | 998.3 |
| 20260503210015 | 72 | 186 | 16.0 | 29.0 | 0.00 | 0.00 | 0.00 | 25 | 998.3 |
| 20260503205512 | 71 | 198 | 14.0 | 28.0 | 0.00 | 0.00 | 0.00 | 25 | 998.3 |
| 20260503205009 | 70 | 41 | 14.0 | 30.0 | 0.00 | 0.00 | 0.00 | 25 | 998.7 |
| 20260503204506 | 69 | 206 | 15.0 | 30.0 | 0.00 | 0.00 | 0.00 | 27 | 999.0 |
| 20260503204002 | 69 | 217 | 15.0 | 27.0 | 0.00 | 0.00 | 0.00 | 27 | 999.0 |
| 20260503203500 | 69 | 203 | 14.0 | 24.0 | 0.00 | 0.00 | 0.00 | 27 | 999.4 |
| 20260503202956 | 69 | 218 | 12.0 | 24.0 | 0.00 | 0.00 | 0.00 | 28 | 999.4 |
| 20260503202454 | 69 | 209 | 13.0 | 25.0 | 0.00 | 0.00 | 0.00 | 30 | 999.7 |
| 20260503201953 | 69 | 136 | 12.0 | 25.0 | 0.00 | 0.00 | 0.00 | 29 | 999.7 |
| 20260503201450 | 69 | 204 | 11.0 | 23.0 | 0.00 | 0.00 | 0.00 | 29 | 999.7 |
| 20260503200947 | 69 | 219 | 14.0 | 24.0 | 0.00 | 0.00 | 0.00 | 29 | 1000.0 |
| 20260503200443 | 69 | 184 | 15.0 | 25.0 | 0.00 | 0.00 | 0.00 | 29 | 1000.0 |
| 20260503195940 | 69 | 192 | 16.0 | 28.0 | 0.00 | 0.00 | 0.00 | 28 | 1000.0 |
| 20260503195438 | 70 | 158 | 18.0 | 35.0 | 0.00 | 0.00 | 0.00 | 27 | 1000.5 |
| 20260503194934 | 70 | 205 | 17.0 | 35.0 | 0.00 | 0.00 | 0.00 | 27 | 1000.5 |
| 20260503194431 | 71 | 212 | 17.0 | 31.0 | 0.00 | 0.00 | 0.00 | 26 | 1000.5 |
| 20260503193926 | 70 | 199 | 18.0 | 31.0 | 0.00 | 0.00 | 0.00 | 28 | 1000.5 |
| 20260503193422 | 70 | 203 | 16.0 | 31.0 | 0.00 | 0.00 | 0.00 | 28 | 1000.5 |
| 20260503192917 | 69 | 173 | 15.0 | 23.0 | 0.00 | 0.00 | 0.00 | 32 | 1001.1 |
| 20260503192414 | 68 | 210 | 15.0 | 24.0 | 0.00 | 0.00 | 0.00 | 33 | 1001.5 |
| 20260503191910 | 68 | 173 | 15.0 | 24.0 | 0.00 | 0.00 | 0.00 | 32 | 1001.5 |
| 20260503191408 | 68 | 179 | 15.0 | 24.0 | 0.00 | 0.00 | 0.00 | 33 | 1001.8 |
| 20260503190903 | 68 | 172 | 15.0 | 26.0 | 0.00 | 0.00 | 0.00 | 34 | 1001.8 |
| 20260503190401 | 67 | 195 | 15.0 | 26.0 | 0.00 | 0.00 | 0.00 | 34 | 1002.2 |
| 20260503185858 | 67 | 203 | 16.0 | 29.0 | 0.00 | 0.00 | 0.00 | 35 | 1002.2 |
| 20260503185354 | 67 | 183 | 17.0 | 29.0 | 0.00 | 0.00 | 0.00 | 35 | 1002.2 |
| 20260503184854 | 67 | 172 | 17.0 | 32.0 | 0.00 | 0.00 | 0.00 | 35 | 1002.5 |
| 20260503184350 | 67 | 195 | 16.0 | 32.0 | 0.00 | 0.00 | 0.00 | 33 | 1002.5 |
| 20260503183846 | 67 | 188 | 15.0 | 31.0 | 0.00 | 0.00 | 0.00 | 35 | 1002.9 |
| 20260503183344 | 67 | 183 | 15.0 | 29.0 | 0.00 | 0.00 | 0.00 | 34 | 1002.9 |
| 20260503182841 | 66 | 195 | 16.0 | 29.0 | 0.00 | 0.00 | 0.00 | 35 | 1003.3 |
| 20260503182340 | 66 | 171 | 16.0 | 32.0 | 0.00 | 0.00 | 0.00 | 35 | 1003.3 |
| 20260503181837 | 66 | 199 | 17.0 | 32.0 | 0.00 | 0.00 | 0.00 | 36 | 1003.6 |
| 20260503181334 | 65 | 235 | 16.0 | 27.0 | 0.00 | 0.00 | 0.00 | 37 | 1003.6 |
| 20260503180830 | 66 | 160 | 15.0 | 27.0 | 0.00 | 0.00 | 0.00 | 37 | 1003.6 |
| 20260503180328 | 65 | 175 | 15.0 | 26.0 | 0.00 | 0.00 | 0.00 | 37 | 1004.0 |
| 20260503175824 | 65 | 159 | 16.0 | 26.0 | 0.00 | 0.00 | 0.00 | 36 | 1004.0 |
| 20260503175323 | 65 | 184 | 15.0 | 27.0 | 0.00 | 0.00 | 0.00 | 38 | 1004.3 |
| 20260503174817 | 65 | 144 | 14.0 | 27.0 | 0.00 | 0.00 | 0.00 | 38 | 1004.3 |
| 20260503174316 | 64 | 174 | 13.0 | 24.0 | 0.00 | 0.00 | 0.00 | 38 | 1004.6 |
| 20260503173811 | 64 | 342 | 12.0 | 22.0 | 0.00 | 0.00 | 0.00 | 38 | 1005.1 |
| 20260503173308 | 64 | 177 | 11.0 | 22.0 | 0.00 | 0.00 | 0.00 | 39 | 1005.1 |
| 20260503172804 | 63 | 176 | 12.0 | 24.0 | 0.00 | 0.00 | 0.00 | 39 | 1005.4 |
| 20260503172304 | 63 | 244 | 13.0 | 24.0 | 0.00 | 0.00 | 0.00 | 40 | 1005.4 |
| 20260503171758 | 63 | 179 | 13.0 | 22.0 | 0.00 | 0.00 | 0.00 | 39 | 1005.7 |
| 20260503171255 | 62 | 166 | 14.0 | 22.0 | 0.00 | 0.00 | 0.00 | 39 | 1005.7 |
| 20260503170752 | 62 | 243 | 13.0 | 23.0 | 0.00 | 0.00 | 0.00 | 42 | 1005.7 |
| 20260503170249 | 62 | 207 | 12.0 | 23.0 | 0.00 | 0.00 | 0.00 | 40 | 1005.7 |
| 20260503160211 | 60 | 210 | 8.0 | 18.0 | 0.00 | 0.00 | 0.00 | 42 | 1007.2 |
| 20260503150641 | 56 | 212 | 7.0 | 16.0 | 0.00 | 0.00 | 0.00 | 48 | 1007.9 |
| 20260503150137 | 56 | 258 | 6.0 | 16.0 | 0.00 | 0.00 | 0.00 | 46 | 1007.9 |
| 20260503131031 | 42 | 229 | 5.0 | 11.0 | 0.00 | 0.00 | 0.00 | 75 | 1009.3 |
| 20260503130528 | 41 | 196 | 3.0 | 8.0 | 0.00 | 0.00 | 0.00 | 76 | 1009.3 |
| 20260503110419 | 31 | 202 | 0.0 | 2.0 | 0.00 | 0.00 | 0.00 | 85 | 1009.7 |
| 20260503090304 | 35 | 193 | 0.0 | 0.0 | 0.00 | 0.00 | 0.00 | 75 | 1010.0 |
| 20260503081237 | 34 | 210 | 0.0 | 0.0 | 0.00 | 0.00 | 0.00 | 73 | 1010.0 |
| 20260503080732 | 35 | 229 | 0.0 | 0.0 | 0.00 | 0.00 | 0.00 | 71 | 1010.0 |
| 20260503080229 | 35 | 264 | 0.0 | 0.0 | 0.00 | 0.00 | 0.00 | 69 | 1010.0 |
| 20260503072707 | 34 | 252 | 0.0 | 0.0 | 0.00 | 0.00 | 0.00 | 73 | 1010.3 |
| 20260503072203 | 34 | 255 | 0.0 | 0.0 | 0.00 | 0.00 | 0.00 | 73 | 1010.3 |
| 20260503071700 | 34 | 233 | 0.0 | 0.0 | 0.00 | 0.00 | 0.00 | 73 | 1010.3 |
| 20260503071157 | 35 | 259 | 0.0 | 0.0 | 0.00 | 0.00 | 0.00 | 72 | 1010.3 |
| 20260503070653 | 34 | 272 | 0.0 | 0.0 | 0.00 | 0.00 | 0.00 | 74 | 1010.3 |
| 20260503070152 | 34 | 267 | 0.0 | 0.0 | 0.00 | 0.00 | 0.00 | 74 | 1010.3 |
| 20260503060116 | 40 | 279 | 2.0 | 7.0 | 0.00 | 0.00 | 0.00 | 65 | 1010.3 |
| 20260503055108 | 40 | 277 | 2.0 | 6.0 | 0.00 | 0.00 | 0.00 | 66 | 1010.3 |
| 20260503054603 | 39 | 276 | 2.0 | 6.0 | 0.00 | 0.00 | 0.00 | 67 | 1010.3 |
| 20260503054100 | 39 | 288 | 3.0 | 6.0 | 0.00 | 0.00 | 0.00 | 68 | 1010.3 |
| 20260503053558 | 40 | 239 | 3.0 | 7.0 | 0.00 | 0.00 | 0.00 | 67 | 1010.3 |
| 20260503053056 | 41 | 242 | 4.0 | 8.0 | 0.00 | 0.00 | 0.00 | 67 | 1010.3 |
| 20260503052552 | 40 | 279 | 4.0 | 8.0 | 0.00 | 0.00 | 0.00 | 68 | 1010.3 |
| 20260503052049 | 40 | 297 | 3.0 | 8.0 | 0.00 | 0.00 | 0.00 | 70 | 1010.3 |
| 20260503051544 | 39 | 300 | 1.0 | 5.0 | 0.00 | 0.00 | 0.00 | 75 | 1010.3 |
| 20260503051043 | 38 | 283 | 0.0 | 5.0 | 0.00 | 0.00 | 0.00 | 78 | 1010.3 |
| 20260503050538 | 38 | 254 | 0.0 | 0.0 | 0.00 | 0.00 | 0.00 | 79 | 1010.3 |
| 20260503050036 | 38 | 274 | 0.0 | 0.0 | 0.00 | 0.00 | 0.00 | 79 | 1010.3 |
| 20260503045532 | 39 | 261 | 0.0 | 0.0 | 0.00 | 0.00 | 0.00 | 79 | 1010.3 |
| 20260503045030 | 39 | 269 | 0.0 | 0.0 | 0.00 | 0.00 | 0.00 | 78 | 1010.3 |
| 20260503044526 | 39 | 248 | 0.0 | 0.0 | 0.00 | 0.00 | 0.00 | 77 | 1010.3 |
| 20260503044024 | 40 | 255 | 0.0 | 0.0 | 0.00 | 0.00 | 0.00 | 75 | 1010.3 |
| 20260503043520 | 41 | 263 | 0.0 | 0.0 | 0.00 | 0.00 | 0.00 | 73 | 1010.3 |
| 20260503043017 | 42 | 255 | 1.0 | 6.0 | 0.00 | 0.00 | 0.00 | 72 | 1010.3 |
| 20260503042514 | 43 | 257 | 3.0 | 6.0 | 0.00 | 0.00 | 0.00 | 71 | 1010.3 |
| 20260503042010 | 44 | 272 | 4.0 | 6.0 | 0.00 | 0.00 | 0.00 | 71 | 1010.3 |
| 20260503041507 | 44 | 269 | 3.0 | 6.0 | 0.00 | 0.00 | 0.00 | 70 | 1010.3 |
| 20260503041005 | 45 | 291 | 2.0 | 6.0 | 0.00 | 0.00 | 0.00 | 68 | 1010.3 |
| 20260503040502 | 46 | 278 | 3.0 | 9.0 | 0.00 | 0.00 | 0.00 | 65 | 1010.3 |
| 20260503035958 | 47 | 295 | 5.0 | 9.0 | 0.00 | 0.00 | 0.00 | 62 | 1010.0 |
| 20260503035455 | 46 | 288 | 4.0 | 8.0 | 0.00 | 0.00 | 0.00 | 64 | 1010.3 |
| 20260503034953 | 45 | 283 | 1.0 | 8.0 | 0.00 | 0.00 | 0.00 | 71 | 1010.0 |
| 20260503034450 | 44 | 264 | 0.0 | 4.0 | 0.00 | 0.00 | 0.00 | 75 | 1010.0 |
| 20260503033947 | 43 | 268 | 1.0 | 6.0 | 0.00 | 0.00 | 0.00 | 75 | 1010.3 |
| 20260503033444 | 44 | 278 | 0.0 | 6.0 | 0.00 | 0.00 | 0.00 | 77 | 1010.3 |
| 20260503032942 | 43 | 262 | 0.0 | 0.0 | 0.00 | 0.00 | 0.00 | 75 | 1010.3 |
| 20260503032441 | 44 | 266 | 0.0 | 0.0 | 0.00 | 0.00 | 0.00 | 74 | 1010.0 |
| 20260503031938 | 44 | 266 | 0.0 | 0.0 | 0.00 | 0.00 | 0.00 | 73 | 1010.0 |
| 20260503031436 | 45 | 264 | 0.0 | 4.0 | 0.00 | 0.00 | 0.00 | 69 | 1010.0 |
| 20260503030932 | 47 | 262 | 0.0 | 4.0 | 0.00 | 0.00 | 0.00 | 67 | 1010.0 |
| 20260503030429 | 48 | 253 | 0.0 | 1.0 | 0.00 | 0.00 | 0.00 | 65 | 1010.0 |
| 20260503025926 | 49 | 255 | 0.0 | 2.0 | 0.00 | 0.00 | 0.00 | 63 | 1010.0 |
| 20260503025422 | 50 | 302 | 0.0 | 2.0 | 0.00 | 0.00 | 0.00 | 62 | 1009.7 |
| 20260503024920 | 51 | 283 | 1.0 | 3.0 | 0.00 | 0.00 | 0.00 | 62 | 1009.7 |
| 20260503024416 | 51 | 235 | 3.0 | 8.0 | 0.00 | 0.00 | 0.00 | 60 | 1009.7 |